EW7771 Weather Reports


Display with metric or nautical units.
time (UTC)temp
F
wind
direction
speed
MPH
gust
MPH
rain 1hr
in
rain 24hr
in
rain mn
in
humidity
%
barometer
mb
20260509061158 51 211 0.0 0.0 0.00 0.00 0.00 86 1021.4
20260509060653 51 211 0.0 0.0 0.00 0.00 0.00 86 1021.3
20260509060143 51 211 0.0 0.0 0.00 0.00 0.00 86 1021.3
20260509055642 52 211 0.0 0.0 0.00 0.00 0.00 85 1021.3
20260509055135 51 211 0.0 0.0 0.00 0.00 0.00 86 1021.3
20260509054628 52 211 0.0 0.0 0.00 0.00 0.00 86 1021.3
20260509054123 52 211 0.0 0.0 0.00 0.00 0.00 86 1021.3
20260509053618 52 211 0.0 0.0 0.00 0.00 0.00 86 1021.3
20260509053110 52 211 0.0 0.0 0.00 0.00 0.00 86 1021.3
20260509052604 52 211 0.0 0.0 0.00 0.00 0.00 85 1021.3
20260509052058 52 211 0.0 0.0 0.00 0.00 0.00 85 1021.2
20260509051555 52 211 0.0 0.0 0.00 0.00 0.00 85 1021.1
20260509051046 52 211 0.0 0.0 0.00 0.00 0.00 85 1021.2
20260509050541 52 211 0.0 0.0 0.00 0.00 0.00 84 1021.1
20260509050031 52 211 0.0 0.0 0.00 0.00 0.00 85 1021.1
20260509045531 52 211 0.0 0.0 0.00 0.00 0.00 84 1021.1
20260509045022 52 211 0.0 0.0 0.00 0.00 0.00 84 1021.1
20260509044516 52 211 0.0 0.0 0.00 0.00 0.00 84 1021.2
20260509044010 52 211 0.0 0.0 0.00 0.00 0.00 84 1021.0
20260509043502 53 211 0.0 0.0 0.00 0.00 0.00 84 1021.0
20260509042958 53 211 0.0 0.0 0.00 0.00 0.00 83 1021.0
20260509042451 53 211 0.0 0.0 0.00 0.00 0.00 83 1020.9
20260509041946 53 211 0.0 0.0 0.00 0.00 0.00 82 1020.8
20260509041442 53 211 0.0 0.0 0.00 0.00 0.00 82 1020.8
20260509040934 53 211 0.0 0.0 0.00 0.00 0.00 82 1020.7
20260509040430 53 211 0.0 0.0 0.00 0.00 0.00 81 1020.6
20260509040139 54 211 0.0 0.0 0.00 0.00 0.00 81 1020.5
20260509035419 54 211 0.0 0.0 0.00 0.00 0.00 80 1020.5
20260509034910 54 211 0.0 0.0 0.00 0.00 0.00 79 1020.5
20260509034404 54 211 0.0 0.0 0.00 0.00 0.00 79 1020.4
20260509033854 55 211 0.0 0.0 0.00 0.00 0.00 79 1020.4
20260509033354 55 211 0.0 0.0 0.00 0.00 0.00 78 1020.3
20260509032843 55 211 0.0 0.0 0.00 0.00 0.00 78 1020.3
20260509032337 55 211 0.0 0.0 0.00 0.00 0.00 78 1020.3
20260509031834 56 211 0.0 0.0 0.00 0.00 0.00 77 1020.2
20260509031330 56 212 0.0 0.0 0.00 0.00 0.00 77 1020.1
20260509030822 56 212 0.0 0.0 0.00 0.00 0.00 76 1020.2
20260509030318 57 212 0.0 0.0 0.00 0.00 0.00 75 1020.1
20260509030024 57 212 0.0 0.0 0.00 0.00 0.00 74 1020.1
20260509025533 57 212 0.0 0.0 0.00 0.00 0.00 72 1020.1
20260509024759 58 212 0.0 0.0 0.00 0.00 0.00 73 1020.1
20260509024255 58 212 0.0 0.0 0.00 0.00 0.00 72 1020.1
20260509023753 58 212 0.0 0.0 0.00 0.00 0.00 72 1020.0
20260509023255 59 212 0.0 0.0 0.00 0.00 0.00 69 1019.9
20260509022753 59 212 0.0 0.0 0.00 0.00 0.00 67 1019.9
20260509022251 59 212 0.0 0.0 0.00 0.00 0.00 63 1019.9
20260509021751 59 212 0.0 0.0 0.00 0.00 0.00 64 1019.9
20260509021510 59 336 0.0 0.0 0.00 0.00 0.00 64 1019.9
20260509020753 59 336 0.0 0.0 0.00 0.00 0.00 63 1019.9
20260509020252 59 336 0.0 0.0 0.00 0.00 0.00 60 1019.8
20260509015752 60 337 0.0 0.0 0.00 0.00 0.00 61 1019.9
20260509015512 60 337 0.0 0.0 0.00 0.00 0.00 60 1019.8
20260509014748 60 105 0.0 0.0 0.00 0.00 0.00 59 1019.8
20260509014247 60 48 0.0 0.0 0.00 0.00 0.00 62 1019.9
20260509013747 60 48 0.0 0.0 0.00 0.00 0.00 63 1019.9
20260509013246 60 48 0.0 0.0 0.00 0.00 0.00 63 1019.9
20260509012748 60 48 0.0 0.0 0.00 0.00 0.00 62 1019.8
20260509012249 60 48 0.0 0.0 0.00 0.00 0.00 61 1019.9
20260509011746 60 331 0.0 0.0 0.00 0.00 0.00 62 1019.9
20260509011249 60 331 0.0 0.0 0.00 0.00 0.00 60 1019.9
20260509010743 60 316 0.0 0.0 0.00 0.00 0.00 60 1019.9
20260509010244 60 316 0.0 0.0 0.00 0.00 0.00 61 1019.9
20260509005742 60 316 0.0 0.0 0.00 0.00 0.00 61 1020.0
20260509005245 60 113 0.0 0.0 0.00 0.00 0.00 61 1019.9
20260509004742 60 49 0.0 0.0 0.00 0.00 0.00 58 1019.9
20260509004241 60 49 0.0 0.0 0.00 0.00 0.00 57 1019.9
20260509003748 61 49 0.0 0.0 0.00 0.00 0.00 57 1019.9
20260509003243 61 150 0.0 0.0 0.00 0.00 0.00 59 1019.9
20260509002741 61 150 0.0 0.0 0.00 0.00 0.00 58 1019.8
20260509002238 61 150 0.0 0.0 0.00 0.00 0.00 60 1019.8
20260509001741 60 152 0.0 0.0 0.00 0.00 0.00 58 1019.8
20260509001239 60 105 0.0 0.0 0.00 0.00 0.00 61 1019.8
20260509000740 60 105 0.0 0.0 0.00 0.00 0.00 59 1019.8
20260509000241 60 107 0.0 0.0 0.00 0.00 0.00 61 1019.8
20260508235740 60 107 0.0 0.0 0.00 0.00 0.00 65 1019.8
20260508235237 60 74 0.0 0.0 0.00 0.00 0.00 58 1019.8
20260508234745 60 334 0.0 0.0 0.00 0.00 0.00 65 1019.8
20260508234238 61 334 0.0 0.0 0.00 0.00 0.00 60 1019.9
20260508233732 61 334 0.0 0.0 0.00 0.00 0.00 61 1019.9
20260508233225 61 310 0.0 0.0 0.00 0.00 0.00 59 1019.9
20260508232721 61 349 0.0 0.0 0.00 0.00 0.00 60 1019.9
20260508232209 61 20 0.0 0.0 0.00 0.00 0.00 60 1019.9
20260508231707 61 70 0.0 0.0 0.00 0.00 0.00 63 1019.9
20260508231201 61 70 0.0 0.0 0.00 0.00 0.00 59 1019.8
20260508230657 61 330 0.0 0.0 0.00 0.00 0.00 62 1019.9
20260508230149 61 339 0.0 0.0 0.00 0.00 0.00 61 1019.9
20260508225643 61 318 0.0 0.0 0.00 0.00 0.00 60 1019.9
20260508225403 61 318 0.0 0.0 0.00 0.00 0.00 61 1020.0
20260508224630 61 345 0.0 0.0 0.00 0.00 0.00 58 1019.9
20260508224122 61 319 0.0 0.0 0.00 0.00 0.00 61 1019.9
20260508223619 61 45 0.0 0.0 0.00 0.00 0.00 61 1020.0
20260508223114 61 261 0.0 0.0 0.00 0.00 0.00 62 1020.0
20260508222610 61 280 0.0 0.0 0.00 0.00 0.00 62 1019.9
20260508222325 61 9 0.0 0.0 0.00 0.00 0.00 62 1019.8
20260508221556 60 38 0.0 0.0 0.00 0.00 0.00 60 1019.8
20260508221049 61 351 0.0 0.0 0.00 0.00 0.00 61 1020.0
20260508220545 60 355 0.0 0.0 0.00 0.00 0.00 63 1020.0
20260508220037 60 5 0.0 0.0 0.00 0.00 0.00 63 1020.0
20260508215531 59 10 0.0 0.0 0.00 0.00 0.00 67 1019.9
20260508215503 59 10 0.0 0.0 0.00 0.00 0.00 66 1020.0
20260508214753 59 348 0.0 0.0 0.00 0.00 0.00 65 1020.0
20260508214013 58 276 0.0 0.0 0.00 0.00 0.00 65 1020.1
20260508213507 58 63 0.0 0.0 0.00 0.00 0.00 66 1020.0
20260508213001 58 63 0.0 0.0 0.00 0.00 0.00 66 1020.1
20260508212454 59 0 0.0 0.0 0.00 0.00 0.00 64 1020.1
20260508211949 59 355 0.0 0.0 0.00 0.00 0.00 67 1020.1
20260508211705 58 335 0.0 0.0 0.00 0.00 0.00 69 1020.1
20260508211204 58 225 0.0 0.0 0.00 0.00 0.00 67 1020.2
20260508210434 58 262 0.0 0.0 0.00 0.00 0.00 67 1020.2
20260508205935 58 74 0.0 0.0 0.00 0.00 0.00 69 1020.3
20260508205434 58 333 0.0 0.0 0.00 0.00 0.00 70 1020.3
20260508204933 58 15 0.0 0.0 0.00 0.00 0.00 72 1020.2
20260508204433 58 279 0.0 6.0 0.00 0.00 0.00 69 1020.2
20260508203931 58 288 0.0 6.0 0.00 0.00 0.00 69 1020.1
20260508203431 59 5 0.0 0.0 0.00 0.00 0.00 67 1020.1
20260508202932 60 178 0.0 0.0 0.00 0.00 0.00 69 1020.1
20260508202431 60 293 0.0 0.0 0.00 0.00 0.00 70 1020.1
20260508201928 59 5 0.0 0.0 0.00 0.00 0.00 69 1019.9
20260508201701 58 296 0.0 0.0 0.00 0.00 0.00 74 1019.8
20260508200926 58 303 0.0 0.0 0.00 0.00 0.00 73 1019.9
20260508200426 57 274 0.0 5.0 0.00 0.00 0.00 74 1019.9
20260508195941 57 287 0.0 3.0 0.00 0.00 0.00 77 1020.1
20260508195930 57 325 0.0 5.0 0.00 0.00 0.00 73 1020.0
20260508194925 56 291 0.0 0.0 0.00 0.00 0.00 77 1020.0
20260508194425 55 234 0.0 3.0 0.00 0.00 0.00 77 1020.1
20260508193920 54 236 0.0 3.0 0.00 0.00 0.00 80 1020.0
20260508193413 54 270 0.0 13.0 0.00 0.00 0.00 77 1020.1
20260508192907 54 125 0.0 13.0 0.00 0.00 0.00 76 1019.9
20260508192405 53 111 0.0 4.0 0.00 0.00 0.00 78 1019.8
20260508191902 53 153 0.0 1.0 0.00 0.00 0.00 77 1019.7
20260508191402 53 190 0.0 1.0 0.00 0.00 0.00 79 1019.7
20260508190902 53 221 0.0 3.0 0.00 0.00 0.00 77 1019.7
20260508190402 53 126 0.0 3.0 0.00 0.00 0.00 78 1019.7
20260508185902 53 213 0.0 1.0 0.00 0.00 0.00 78 1019.7
20260508185632 53 351 0.0 1.0 0.00 0.00 0.00 77 1019.6
20260508184903 53 92 0.0 0.0 0.00 0.00 0.00 79 1019.6
20260508184404 53 250 0.0 0.0 0.00 0.00 0.00 78 1019.4
20260508183902 53 280 0.0 0.0 0.00 0.00 0.00 78 1019.6
20260508183401 54 98 0.0 0.0 0.00 0.00 0.00 76 1019.5
20260508182903 54 137 0.0 0.0 0.00 0.00 0.00 76 1019.5
20260508182403 54 27 0.0 5.0 0.00 0.00 0.00 76 1019.4
20260508182353 54 0 0.0 5.0 0.00 0.00 0.00 78 1019.4
20260508181402 55 164 0.0 7.0 0.00 0.00 0.00 77 1019.3
20260508180901 55 175 0.0 7.0 0.00 0.00 0.00 76 1019.2
20260508180359 55 186 0.0 7.0 0.00 0.00 0.00 79 1019.1
20260508175901 55 140 0.0 2.0 0.00 0.00 0.00 81 1018.8
20260508175401 54 107 0.0 0.0 0.00 0.00 0.00 80 1018.8
20260508174854 54 145 0.0 3.0 0.00 0.00 0.00 78 1018.7
20260508174350 54 134 0.0 3.0 0.00 0.00 0.00 77 1018.6
20260508173843 55 75 0.0 0.0 0.00 0.00 0.00 78 1018.5
20260508173336 54 317 0.0 1.0 0.00 0.00 0.00 81 1018.1
20260508172832 53 121 0.0 1.0 0.00 0.00 0.00 80 1018.0
20260508172324 53 338 0.0 2.0 0.00 0.00 0.00 80 1018.0
20260508172052 52 338 0.0 2.0 0.00 0.00 0.00 82 1018.1
20260508171313 52 190 0.0 0.0 0.00 0.00 0.00 82 1018.0
20260508170807 52 190 0.0 0.0 0.00 0.00 0.00 82 1018.1
20260508170259 52 190 0.0 0.0 0.00 0.00 0.00 82 1018.1
20260508165753 52 165 0.0 0.0 0.00 0.00 0.00 82 1018.0
20260508165247 51 14 0.0 0.0 0.00 0.00 0.00 84 1017.8
20260508164740 51 13 0.0 0.0 0.00 0.00 0.00 84 1017.9
20260508164233 51 13 0.0 0.0 0.00 0.00 0.00 85 1017.9
20260508163729 51 12 0.0 0.0 0.00 0.00 0.00 86 1017.9
20260508163222 50 12 0.0 0.0 0.00 0.00 0.00 85 1018.0
20260508162716 50 12 0.0 0.0 0.00 0.00 0.00 86 1018.3
20260508162210 50 12 0.0 0.0 0.00 0.00 0.00 85 1018.3
20260508162200 50 86 0.0 0.0 0.00 0.00 0.00 87 1018.4
20260508161159 50 86 0.0 0.0 0.00 0.00 0.00 86 1018.5
20260508160652 50 87 0.0 0.0 0.00 0.00 0.00 87 1018.7
20260508160146 50 355 0.0 0.0 0.00 0.00 0.00 86 1018.7
20260508155642 50 140 0.0 0.0 0.00 0.00 0.00 88 1018.7
20260508155135 50 140 0.0 1.0 0.00 0.00 0.00 87 1018.6
20260508154629 50 34 0.0 1.0 0.00 0.00 0.00 88 1018.6
20260508154123 50 136 0.0 0.0 0.00 0.00 0.00 87 1018.5
20260508153618 50 335 0.0 1.0 0.00 0.00 0.00 88 1018.5
20260508153110 50 322 0.0 1.0 0.00 0.00 0.00 88 1018.4
20260508152604 50 292 0.0 2.0 0.00 0.00 0.00 89 1018.3
20260508152332 49 77 0.0 2.0 0.00 0.00 0.00 90 1018.3
20260508151553 49 61 0.0 0.0 0.00 0.00 0.00 92 1018.3
20260508151046 49 346 0.0 0.0 0.00 0.00 0.00 94 1018.1
20260508150810 48 46 0.0 0.0 0.00 0.00 0.00 95 1018.1
20260508150034 48 55 0.0 0.0 0.00 0.00 0.00 96 1018.0
20260508145529 47 57 0.0 0.0 0.00 0.00 0.00 96 1018.0
20260508145028 47 72 0.0 0.0 0.00 0.00 0.00 96 1017.9
20260508144746 47 72 0.0 0.0 0.00 0.00 0.00 96 1017.7
20260508144025 46 73 0.0 2.0 0.00 0.00 0.00 96 1017.5
20260508143522 46 73 0.0 2.0 0.00 0.00 0.00 96 1017.3
20260508143028 46 66 0.0 1.0 0.00 0.00 0.00 96 1017.2
20260508142524 46 66 0.0 0.0 0.00 0.00 0.00 96 1017.2
20260508142015 45 198 0.0 0.0 0.00 0.00 0.00 96 1017.2
20260508141517 45 198 0.0 0.0 0.00 0.00 0.00 96 1017.1
20260508141017 45 198 0.0 0.0 0.00 0.00 0.00 96 1017.0
20260508140513 45 198 0.0 0.0 0.00 0.00 0.00 96 1016.8
20260508140231 45 198 0.0 0.0 0.00 0.00 0.00 96 1016.9
20260508135515 44 198 0.0 0.0 0.00 0.00 0.00 96 1016.8
20260508135013 44 198 0.0 0.0 0.00 0.00 0.00 96 1016.7
20260508134510 44 198 0.0 0.0 0.00 0.00 0.00 96 1016.7
20260508134009 44 198 0.0 0.0 0.00 0.00 0.00 96 1016.8
20260508133509 44 198 0.0 0.0 0.00 0.00 0.00 95 1016.8
20260508133007 44 198 0.0 0.0 0.00 0.00 0.00 95 1016.8
20260508132506 44 198 0.0 0.0 0.00 0.00 0.00 95 1016.7
20260508132004 44 198 0.0 0.0 0.00 0.00 0.00 95 1016.7
20260508131510 44 198 0.0 0.0 0.00 0.00 0.00 95 1016.6
20260508131008 44 198 0.0 0.0 0.00 0.00 0.00 95 1016.5
20260508130502 44 198 0.0 0.0 0.00 0.00 0.00 95 1016.5
20260508130441 44 197 0.0 0.0 0.00 0.00 0.00 95 1016.5
20260508125450 44 197 0.0 0.0 0.00 0.00 0.00 95 1016.4
20260508124942 44 197 0.0 0.0 0.00 0.00 0.00 95 1016.3
20260508124430 44 197 0.0 0.0 0.00 0.00 0.00 95 1016.2
20260508123924 44 197 0.0 0.0 0.00 0.00 0.00 95 1016.2
20260508123418 44 197 0.0 0.0 0.00 0.00 0.00 95 1016.2
20260508123143 44 197 0.0 0.0 0.00 0.00 0.00 95 1016.2
20260508122406 44 197 0.0 0.0 0.00 0.00 0.00 95 1016.2
20260508121900 44 197 0.0 0.0 0.00 0.00 0.00 95 1016.1
20260508121401 44 197 0.0 1.0 0.00 0.00 0.00 95 1016.0
20260508120905 44 197 0.0 1.0 0.00 0.00 0.00 95 1016.0
20260508120402 44 197 0.0 0.0 0.00 0.00 0.00 95 1016.0
20260508115906 44 197 0.0 0.0 0.00 0.00 0.00 95 1016.0
20260508115849 44 197 0.0 0.0 0.00 0.00 0.00 95 1016.0
20260508114900 44 165 0.0 1.0 0.00 0.00 0.00 95 1015.9
20260508114357 44 164 0.0 1.0 0.00 0.00 0.00 95 1015.9
20260508113900 44 165 0.0 3.0 0.00 0.00 0.00 95 1015.9
20260508113359 44 142 0.0 3.0 0.00 0.00 0.00 95 1015.9
20260508112858 44 173 0.0 0.0 0.00 0.00 0.00 95 1015.9
20260508112356 44 175 0.0 0.0 0.00 0.00 0.00 95 1015.9
20260508111901 44 175 0.0 0.0 0.00 0.00 0.00 95 1015.9
20260508111845 44 202 0.0 0.0 0.00 0.00 0.00 95 1015.9
20260508111121 44 202 0.0 0.0 0.00 0.00 0.00 95 1015.8
20260508110355 44 202 0.0 0.0 0.00 0.00 0.00 95 1015.8
20260508105855 44 180 0.0 1.0 0.00 0.00 0.00 95 1015.8
20260508105355 44 180 0.0 1.0 0.00 0.00 0.00 95 1015.7
20260508104856 44 173 0.0 0.0 0.00 0.00 0.00 95 1015.6
20260508104356 44 186 0.0 0.0 0.00 0.00 0.00 95 1015.7
20260508103850 44 186 0.0 0.0 0.00 0.00 0.00 95 1015.6
20260508103343 44 186 0.0 0.0 0.00 0.00 0.00 95 1015.7
20260508102839 44 186 0.0 0.0 0.00 0.00 0.00 95 1015.5
20260508102555 44 192 0.0 0.0 0.00 0.01 0.00 95 1015.5
20260508101825 44 191 0.0 0.0 0.00 0.01 0.00 95 1015.6
20260508101321 44 191 0.0 0.0 0.00 0.01 0.00 95 1015.6
20260508100813 44 191 0.0 0.0 0.00 0.01 0.00 95 1015.6
20260508100307 44 191 0.0 0.0 0.00 0.01 0.00 95 1015.6
20260508095802 44 184 0.0 1.0 0.00 0.01 0.00 95 1015.6
20260508095255 44 201 0.0 1.0 0.00 0.02 0.00 95 1015.6
20260508094749 44 191 0.0 0.0 0.00 0.02 0.00 95 1015.6
20260508094506 44 191 0.0 0.0 0.00 0.02 0.00 95 1015.6
20260508093737 44 191 0.0 0.0 0.00 0.02 0.00 95 1015.6
20260508093500 44 191 0.0 0.0 0.00 0.02 0.00 95 1015.7
20260508092723 44 191 0.0 0.0 0.00 0.02 0.00 95 1015.7
20260508092438 44 191 0.0 0.0 0.00 0.02 0.00 95 1015.6
20260508091711 44 191 0.0 0.0 0.00 0.02 0.00 95 1015.6
20260508091427 44 191 0.0 0.0 0.00 0.02 0.00 95 1015.6
20260508090930 44 191 0.0 0.0 0.00 0.02 0.00 95 1015.6
20260508090155 44 192 0.0 0.0 0.00 0.02 0.00 95 1015.7
20260508085648 44 183 0.0 0.0 0.00 0.02 0.00 95 1015.6
20260508085141 44 182 0.0 0.0 0.00 0.02 0.00 95 1015.7
20260508084636 44 182 0.0 0.0 0.00 0.02 0.00 95 1015.7
20260508084130 44 182 0.0 0.0 0.00 0.02 0.00 95 1015.7
20260508083623 44 182 0.0 0.0 0.00 0.02 0.00 95 1015.7
20260508083117 44 182 0.0 0.0 0.00 0.02 0.00 95 1015.7
20260508082612 45 182 0.0 0.0 0.00 0.02 0.00 95 1015.7
20260508082340 45 183 0.0 0.0 0.00 0.02 0.00 95 1015.6
20260508081559 45 183 0.0 0.0 0.00 0.02 0.00 94 1015.8
20260508081053 45 183 0.0 0.0 0.00 0.02 0.00 94 1015.8
20260508080548 45 183 0.0 0.0 0.00 0.02 0.00 94 1015.8
20260508080042 45 183 0.0 0.0 0.00 0.02 0.00 94 1015.8
20260508075535 45 183 0.0 0.0 0.00 0.02 0.00 94 1015.8
20260508075029 45 169 0.0 0.0 0.00 0.02 0.00 94 1015.8
20260508074525 45 169 0.0 0.0 0.00 0.02 0.00 94 1015.7
20260508074017 45 225 0.0 0.0 0.00 0.02 0.00 94 1015.8
20260508073511 45 232 0.0 0.0 0.00 0.02 0.00 94 1015.8
20260508073005 45 233 0.0 0.0 0.00 0.02 0.00 94 1015.8
20260508072502 45 233 0.0 0.0 0.00 0.02 0.00 94 1015.8
20260508071955 45 233 0.0 0.0 0.00 0.02 0.00 94 1015.9
20260508071449 46 233 0.0 0.0 0.00 0.03 0.00 94 1015.9
20260508070945 46 233 0.0 0.0 0.00 0.03 0.00 94 1015.9
20260508070438 46 233 0.0 0.0 0.00 0.03 0.00 94 1015.9
20260508065931 46 233 0.0 0.0 0.00 0.03 0.03 94 1015.8
20260508065432 46 237 0.0 0.0 0.00 0.03 0.03 94 1015.9
20260508064931 46 237 0.0 0.0 0.00 0.03 0.03 94 1015.9
20260508064430 46 237 0.0 0.0 0.00 0.03 0.03 93 1016.0
20260508064424 46 237 0.0 0.0 0.00 0.03 0.03 94 1015.9
20260508063428 46 237 0.0 0.0 0.00 0.03 0.03 93 1015.9
20260508062930 46 237 0.0 0.0 0.00 0.03 0.03 93 1015.9
20260508062655 46 237 0.0 0.0 0.00 0.03 0.03 93 1016.0
20260508061929 47 237 0.0 0.0 0.00 0.03 0.03 93 1015.9
20260508061428 47 237 0.0 0.0 0.00 0.03 0.03 93 1015.9